Location: Newark
(55.0331°N, 59.0915°E)
Time: 11:38:28
(UTC+00:00)

Envisat - Visible Passes

Search period start: 20 September 2020 00:00
Search period end: 30 September 2020 00:00
Orbit: 764 x 766 km, 98.1° (Epoch: 20 September)

Date Brightness Start Highest point End Pass type
(mag) Time Alt. Az. Time Alt. Az. Time Alt. Az.
20 Sep 6.1 14:35:59 10° SW 14:39:30 19° W 14:43:03 10° NW visible
21 Sep 6.1 00:57:07 10° NE 01:00:37 18° E 01:04:07 10° SE visible
22 Sep 6.6 15:03:31 10° WSW 15:05:21 12° W 15:07:12 10° WNW visible
24 Sep 6.2 00:46:08 10° NE 00:49:05 15° E 00:52:03 10° ESE visible
25 Sep 6.3 14:51:04 10° WSW 14:53:48 14° W 14:56:34 10° NW visible
26 Sep 5.8 01:10:49 10° NE 01:14:54 23° E 01:18:56 10° SE visible
27 Sep 6.4 00:35:23 10° ENE 00:37:33 13° E 00:39:43 10° ESE visible
28 Sep 6.2 14:38:56 10° SW 14:42:17 17° W 14:45:38 10° NW visible
29 Sep 6.0 00:59:42 10° NE 01:03:23 20° E 01:07:03 10° SE visible
